, AK

(GMT )
Northway

Weather History for PAOR - April, 2013

Change the Weather History Date:

Thursday, April 25, 2013

  Actual Average Record
Temperature  
Mean Temperature 22 °F -  
Max Temperature 30 °F 50 °F 66 °F (2003)
Min Temperature 12 °F 24 °F 6 °F (2002)
Degree Days  
Heating Degree Days 42    
Moisture  
Dew Point 10 °F    
Average Humidity 56    
Maximum Humidity 88    
Minimum Humidity 32    
Precipitation  
Precipitation 0.00 in - - ()
Snow  
Snow 0.00 in - - ()
Snow Depth 12.00 in    
Sea Level Pressure  
Sea Level Pressure 29.91 in    
Wind  
Wind Speed 8 mph (NNW)    
Max Wind Speed 14 mph    
Max Gust Speed 21 mph    
Visibility 10 miles    
Events Snow    
Averages and records for this station are not official NWS values.
T = Trace of Precipitation, MM = Missing Value Source: NWS Daily Summary

Daily Weather History Graph

Daily Weather History Graph

Search for Another Location

Airport or City:

Astronomy

Apr. 25, 2013 Rise Set
Actual Time 5:26 AM AKDT 9:27 PM AKDT
Civil Twilight 4:27 AM AKDT 10:26 PM AKDT
Nautical Twilight 2:49 AM AKDT 12:08 AM AKDT
Astronomical Twilight Sun does not set Sun does not set
Moon 10:05 PM AKDT (4/25) 5:15 AM AKDT (4/25)
Length of Visible Light 17h 58m
Length of Day
16h 00m
Full, 100% of the Moon is Illuminated
Apr 25
Full
May 2
Last Quarter
May 9
New
May 17
First Quarter
May 24
Full

Hourly Weather History & Observations

Time (AKDT) Temp. Windchill Dew Point Humidity Pressure Visibility Wind Dir Wind Speed Gust Speed Precip Events Conditions
12:53 AM 28.0 °F 20.8 °F 21.9 °F 78% 29.88 in 9.0 mi NW 6.9 mph - N/A Snow Light Snow
1:53 AM 26.1 °F 17.6 °F 21.0 °F 81% 29.89 in 9.0 mi NW 8.1 mph - N/A   Overcast
2:53 AM 25.0 °F 17.1 °F 21.0 °F 85% 29.89 in 10.0 mi NW 6.9 mph - N/A   Mostly Cloudy
3:53 AM 24.1 °F 17.0 °F 21.0 °F 88% 29.89 in 10.0 mi NW 5.8 mph - N/A   Mostly Cloudy
4:53 AM 23.0 °F 15.8 °F 18.0 °F 81% 29.90 in 10.0 mi NNW 5.8 mph - N/A   Mostly Cloudy
5:53 AM 21.9 °F 13.4 °F 15.1 °F 75% 29.88 in 10.0 mi NW 6.9 mph - N/A   Scattered Clouds
6:53 AM 21.9 °F 11.7 °F 14.0 °F 72% 29.89 in 10.0 mi NW 9.2 mph - N/A   Mostly Cloudy
7:53 AM 21.9 °F 14.5 °F 15.1 °F 75% 29.88 in 10.0 mi NW 5.8 mph - N/A   Mostly Cloudy
8:53 AM 26.1 °F 20.5 °F 14.0 °F 60% 29.87 in 10.0 mi Variable 4.6 mph - N/A   Mostly Cloudy
9:53 AM 28.0 °F 20.8 °F 12.0 °F 51% 29.87 in 10.0 mi NNE 6.9 mph - N/A   Mostly Cloudy
10:53 AM 28.9 °F 21.9 °F 10.0 °F 45% 29.87 in 10.0 mi North 6.9 mph - N/A   Mostly Cloudy
11:53 AM 28.9 °F 20.4 °F 8.1 °F 41% 29.89 in 10.0 mi NW 9.2 mph 18.4 mph N/A   Mostly Cloudy
12:53 PM 28.9 °F 21.1 °F 3.9 °F 35% 29.88 in 10.0 mi WNW 8.1 mph - N/A   Scattered Clouds
1:53 PM 28.9 °F 18.6 °F 1.9 °F 32% 29.89 in 10.0 mi WNW 12.7 mph 19.6 mph N/A   Scattered Clouds
2:53 PM 28.9 °F 18.6 °F 3.0 °F 33% 29.90 in 10.0 mi NW 12.7 mph 20.7 mph N/A   Scattered Clouds
3:53 PM 28.9 °F 18.2 °F 3.9 °F 35% 29.91 in 10.0 mi NNW 13.8 mph 19.6 mph N/A   Mostly Cloudy
4:53 PM 27.0 °F 17.3 °F 3.9 °F 37% 29.92 in 10.0 mi North 10.4 mph 18.4 mph N/A   Mostly Cloudy
5:53 PM 28.0 °F 18.1 °F 6.1 °F 39% 29.93 in 10.0 mi North 11.5 mph 19.6 mph N/A   Mostly Cloudy
6:53 PM 25.0 °F 14.8 °F 3.9 °F 41% 29.94 in 10.0 mi NNW 10.4 mph 18.4 mph N/A   Scattered Clouds
7:53 PM 23.0 °F 11.7 °F 3.9 °F 44% 29.95 in 10.0 mi NNW 11.5 mph 19.6 mph N/A   Scattered Clouds
8:53 PM 21.9 °F 14.5 °F 3.9 °F 46% 29.95 in 10.0 mi NNW 5.8 mph - N/A   Scattered Clouds
9:53 PM 19.0 °F 12.3 °F 3.9 °F 52% 29.96 in 10.0 mi NNW 4.6 mph - N/A   Scattered Clouds
10:53 PM 17.1 °F - 3.9 °F 56% 29.97 in 10.0 mi Calm Calm - N/A   Partly Cloudy
11:53 PM 12.9 °F 6.9 °F 1.9 °F 62% 29.98 in 10.0 mi NW 3.5 mph - N/A   Partly Cloudy